Location: Gad�tanya
(48.0500°N, 20.8500°E)
Time: 22:34:50
(UTC+00:00)

Cosmos 1515 Rocket - Pass Details

Date: 05 July 2020
Orbit: 606 x 630 km, 82.5° (Epoch: 05 August)

Event Time Altitude Azimuth Distance (km) Brightness Sun altitude
Rises 22:35:26 0° 349° (N) 2,879 8.6 -19.3°
Reaches altitude 10° 22:37:39 10° 349° (NNW) 1,971 7.3 -19.3°
Maximum altitude 22:42:01 81° 263° (W) 623 3.5 -19.3°
Enters shadow 22:43:15 47° 182° (S) 817 3.7 -19.3°
